Tracking 27126 objects as of 31-Mar-2023
HD Live streaming from Space Station
objects crossing your sky now

ARIANE 42P DEB

Track ARIANE 42P DEB now!
10-day predictions


NORAD ID: 47108
Int'l Code: 1992-052P
Perigee: 578.8 km
Apogee: 2,463.5 km
Inclination: 65.8 °
Period: 116.3 minutes
Semi major axis: 7892 km
RCS: Unknown
Launch date: August 10, 1992
Source: France (FR)
Launch site: FRENCH GUIANA (FRGUI)

Note: This is SATELLITE DEBRIS
Your satellite tracking list
Your tracking list is empty




NASA's NSSDC Master Catalog

Two Line Element Set (TLE):
1 47108U 92052P   23087.34694945  .00001128  00000-0  64073-3 0  9997
2 47108  65.8173 214.1896 1193990  34.6767 332.6480 12.38257543145947
Source of the keplerian elements: AFSPC